| time (UTC) | temp C | wind direction | speed KPH | gust KPH | rain 1hr cm | rain 24hr cm | rain mn cm | humidity % | barometer mb |
| 20260502194647 | 19 | 242 | 4.8 | 8.0 | 0.00 | 0.00 | 0.00 | 31 | 1014.3 |
| 20260502194144 | 19 | 203 | 4.8 | 11.3 | 0.00 | 0.00 | 0.00 | 30 | 1014.3 |
| 20260502193641 | 18 | 174 | 0.0 | 3.2 | 0.00 | 0.00 | 0.00 | 34 | 1014.7 |
| 20260502193138 | 17 | 205 | 4.8 | 8.0 | 0.00 | 0.00 | 0.00 | 33 | 1014.5 |
| 20260502192633 | 17 | 191 | 3.2 | 4.8 | 0.00 | 0.00 | 0.00 | 33 | 1014.7 |
| 20260502192131 | 17 | 203 | 1.6 | 3.2 | 0.00 | 0.00 | 0.00 | 32 | 1015.0 |
| 20260502191627 | 18 | 121 | 3.2 | 4.8 | 0.00 | 0.00 | 0.00 | 31 | 1015.1 |
| 20260502191125 | 19 | 211 | 9.7 | 16.1 | 0.00 | 0.00 | 0.00 | 30 | 1015.0 |
| 20260502190622 | 19 | 197 | 3.2 | 4.8 | 0.00 | 0.00 | 0.00 | 30 | 1015.1 |
| 20260502190120 | 18 | 215 | 3.2 | 4.8 | 0.00 | 0.00 | 0.00 | 33 | 1015.1 |
| 20260502185614 | 18 | 172 | 3.2 | 4.8 | 0.00 | 0.00 | 0.00 | 33 | 1015.3 |
| 20260502185111 | 18 | 205 | 8.0 | 11.3 | 0.00 | 0.00 | 0.00 | 31 | 1015.4 |
| 20260502184608 | 18 | 286 | 3.2 | 4.8 | 0.00 | 0.00 | 0.00 | 33 | 1015.5 |
| 20260502184103 | 17 | 193 | 1.6 | 3.2 | 0.00 | 0.00 | 0.00 | 35 | 1015.5 |
| 20260502183559 | 17 | 170 | 4.8 | 4.8 | 0.00 | 0.00 | 0.00 | 33 | 1015.8 |
| 20260502183056 | 17 | 192 | 1.6 | 4.8 | 0.00 | 0.00 | 0.00 | 32 | 1016.0 |
| 20260502182551 | 17 | 40 | 8.0 | 11.3 | 0.00 | 0.00 | 0.00 | 34 | 1015.8 |
| 20260502182047 | 17 | 189 | 4.8 | 8.0 | 0.00 | 0.00 | 0.00 | 34 | 1016.1 |
| 20260502181545 | 17 | 213 | 11.3 | 14.5 | 0.00 | 0.00 | 0.00 | 33 | 1015.8 |
| 20260502181044 | 16 | 13 | 6.4 | 8.0 | 0.00 | 0.00 | 0.00 | 33 | 1016.0 |
| 20260502180541 | 16 | 93 | 6.4 | 8.0 | 0.00 | 0.00 | 0.00 | 33 | 1016.3 |
| 20260502170459 | 15 | 201 | 8.0 | 11.3 | 0.00 | 0.00 | 0.00 | 34 | 1017.4 |
| 20260502163942 | 15 | 334 | 4.8 | 8.0 | 0.00 | 0.00 | 0.00 | 35 | 1017.6 |
| 20260502163438 | 15 | 177 | 4.8 | 8.0 | 0.00 | 0.00 | 0.00 | 35 | 1017.8 |
| 20260502162936 | 15 | 208 | 8.0 | 11.3 | 0.00 | 0.00 | 0.00 | 33 | 1017.8 |
| 20260502162433 | 15 | 190 | 1.6 | 3.2 | 0.00 | 0.00 | 0.00 | 38 | 1017.9 |
| 20260502161930 | 15 | 180 | 8.0 | 14.5 | 0.00 | 0.00 | 0.00 | 34 | 1017.9 |
| 20260502161426 | 15 | 345 | 14.5 | 16.1 | 0.00 | 0.00 | 0.00 | 35 | 1018.0 |
| 20260502160924 | 15 | 208 | 8.0 | 14.5 | 0.00 | 0.00 | 0.00 | 35 | 1017.9 |
| 20260502160422 | 14 | 183 | 6.4 | 8.0 | 0.00 | 0.00 | 0.00 | 36 | 1018.0 |
| 20260502151901 | 13 | 191 | 4.8 | 4.8 | 0.00 | 0.00 | 0.00 | 39 | 1018.3 |
| 20260502151357 | 13 | 180 | 3.2 | 4.8 | 0.00 | 0.00 | 0.00 | 40 | 1018.5 |
| 20260502150855 | 13 | 163 | 4.8 | 8.0 | 0.00 | 0.00 | 0.00 | 41 | 1018.6 |
| 20260502150351 | 13 | 171 | 1.6 | 3.2 | 0.00 | 0.00 | 0.00 | 39 | 1018.4 |
| 20260502130739 | 6 | 180 | 0.0 | 0.0 | 0.00 | 0.00 | 0.00 | 61 | 1019.2 |
| 20260502130237 | 6 | 166 | 0.0 | 0.0 | 0.00 | 0.00 | 0.00 | 61 | 1019.1 |
| 20260502123723 | 5 | 192 | 3.2 | 4.8 | 0.00 | 0.00 | 0.00 | 66 | 1019.1 |
| 20260502123219 | 5 | 179 | 0.0 | 0.0 | 0.00 | 0.00 | 0.00 | 67 | 1019.1 |
| 20260502122716 | 4 | 172 | 1.6 | 3.2 | 0.00 | 0.00 | 0.00 | 67 | 1018.9 |
| 20260502122212 | 4 | 170 | 0.0 | 0.0 | 0.00 | 0.00 | 0.00 | 68 | 1019.0 |
| 20260502121711 | 3 | 171 | 0.0 | 0.0 | 0.00 | 0.00 | 0.00 | 71 | 1019.1 |
| 20260502121208 | 2 | 175 | 0.0 | 0.0 | 0.00 | 0.00 | 0.00 | 74 | 1018.8 |
| 20260502120704 | 2 | 169 | 0.0 | 0.0 | 0.00 | 0.00 | 0.00 | 76 | 1018.7 |
| 20260502120201 | 2 | 175 | 0.0 | 0.0 | 0.00 | 0.00 | 0.00 | 76 | 1018.9 |
| 20260502115659 | 2 | 170 | 0.0 | 0.0 | 0.00 | 0.00 | 0.00 | 75 | 1019.0 |
| 20260502115155 | 2 | 162 | 0.0 | 0.0 | 0.00 | 0.00 | 0.00 | 75 | 1018.9 |
| 20260502114651 | 2 | 165 | 0.0 | 0.0 | 0.00 | 0.00 | 0.00 | 75 | 1019.0 |
| 20260502114149 | 1 | 160 | 0.0 | 0.0 | 0.00 | 0.00 | 0.00 | 75 | 1018.9 |
| 20260502113646 | 1 | 170 | 0.0 | 0.0 | 0.00 | 0.00 | 0.00 | 75 | 1018.8 |
| 20260502113144 | 1 | 169 | 0.0 | 0.0 | 0.00 | 0.00 | 0.00 | 73 | 1018.6 |
| 20260502112642 | 2 | 169 | 0.0 | 0.0 | 0.00 | 0.00 | 0.00 | 72 | 1018.8 |
| 20260502112139 | 2 | 169 | 0.0 | 0.0 | 0.00 | 0.00 | 0.00 | 73 | 1018.8 |
| 20260502111636 | 2 | 179 | 0.0 | 0.0 | 0.00 | 0.00 | 0.00 | 72 | 1018.7 |
| 20260502111134 | 2 | 172 | 0.0 | 0.0 | 0.00 | 0.00 | 0.00 | 72 | 1018.6 |
| 20260502110631 | 2 | 169 | 0.0 | 0.0 | 0.00 | 0.00 | 0.00 | 72 | 1018.6 |
| 20260502110128 | 2 | 175 | 0.0 | 0.0 | 0.00 | 0.00 | 0.00 | 72 | 1018.8 |
| 20260502105626 | 2 | 175 | 0.0 | 0.0 | 0.00 | 0.00 | 0.00 | 72 | 1018.5 |
| 20260502105123 | 2 | 176 | 0.0 | 0.0 | 0.00 | 0.00 | 0.00 | 71 | 1018.5 |
| 20260502104620 | 2 | 177 | 0.0 | 0.0 | 0.00 | 0.00 | 0.00 | 71 | 1018.7 |
| 20260502104117 | 2 | 171 | 0.0 | 0.0 | 0.00 | 0.00 | 0.00 | 70 | 1018.7 |
| 20260502103615 | 2 | 177 | 0.0 | 0.0 | 0.00 | 0.00 | 0.00 | 70 | 1018.6 |
| 20260502103113 | 2 | 174 | 0.0 | 0.0 | 0.00 | 0.00 | 0.00 | 69 | 1018.7 |
| 20260502102609 | 2 | 177 | 0.0 | 0.0 | 0.00 | 0.00 | 0.00 | 69 | 1018.6 |
| 20260502102106 | 2 | 167 | 0.0 | 0.0 | 0.00 | 0.00 | 0.00 | 69 | 1018.4 |
| 20260502101604 | 2 | 176 | 0.0 | 0.0 | 0.00 | 0.00 | 0.00 | 68 | 1018.5 |
| 20260502101102 | 2 | 170 | 0.0 | 0.0 | 0.00 | 0.00 | 0.00 | 68 | 1018.5 |
| 20260502100600 | 2 | 157 | 0.0 | 0.0 | 0.00 | 0.00 | 0.00 | 68 | 1018.5 |
| 20260502091032 | 3 | 180 | 0.0 | 0.0 | 0.00 | 0.00 | 0.00 | 64 | 1018.4 |
| 20260502090529 | 3 | 180 | 0.0 | 0.0 | 0.00 | 0.00 | 0.00 | 63 | 1018.4 |
| 20260502071424 | 5 | 164 | 0.0 | 0.0 | 0.00 | 0.00 | 0.00 | 61 | 1018.7 |
| 20260502070922 | 4 | 182 | 0.0 | 0.0 | 0.00 | 0.00 | 0.00 | 62 | 1018.8 |
| 20260502070420 | 4 | 173 | 0.0 | 0.0 | 0.00 | 0.00 | 0.00 | 63 | 1018.7 |
| 20260502065918 | 4 | 176 | 0.0 | 0.0 | 0.00 | 0.00 | 0.00 | 63 | 1018.9 |
| 20260502065416 | 4 | 172 | 0.0 | 0.0 | 0.00 | 0.00 | 0.00 | 62 | 1018.6 |
| 20260502064914 | 5 | 176 | 0.0 | 0.0 | 0.00 | 0.00 | 0.00 | 62 | 1018.8 |
| 20260502064411 | 5 | 173 | 0.0 | 0.0 | 0.00 | 0.00 | 0.00 | 62 | 1018.9 |
| 20260502063908 | 5 | 180 | 0.0 | 0.0 | 0.00 | 0.00 | 0.00 | 61 | 1018.9 |
| 20260502063406 | 5 | 182 | 0.0 | 0.0 | 0.00 | 0.00 | 0.00 | 61 | 1018.9 |
| 20260502062903 | 5 | 175 | 0.0 | 0.0 | 0.00 | 0.00 | 0.00 | 60 | 1019.0 |
| 20260502062400 | 5 | 173 | 0.0 | 0.0 | 0.00 | 0.00 | 0.00 | 60 | 1018.9 |
| 20260502061859 | 5 | 175 | 0.0 | 0.0 | 0.00 | 0.00 | 0.00 | 60 | 1018.9 |
| 20260502061357 | 5 | 174 | 0.0 | 0.0 | 0.00 | 0.00 | 0.00 | 59 | 1018.9 |
| 20260502060852 | 5 | 177 | 0.0 | 0.0 | 0.00 | 0.00 | 0.00 | 60 | 1019.0 |
| 20260502060347 | 5 | 176 | 0.0 | 0.0 | 0.00 | 0.00 | 0.00 | 60 | 1018.8 |
| 20260502055845 | 5 | 179 | 0.0 | 0.0 | 0.00 | 0.00 | 0.00 | 60 | 1019.0 |
| 20260502055343 | 5 | 184 | 0.0 | 0.0 | 0.00 | 0.00 | 0.00 | 59 | 1019.1 |
| 20260502054842 | 5 | 172 | 0.0 | 0.0 | 0.00 | 0.00 | 0.00 | 60 | 1019.2 |
| 20260502054339 | 5 | 174 | 0.0 | 0.0 | 0.00 | 0.00 | 0.00 | 59 | 1019.0 |
| 20260502053837 | 5 | 173 | 0.0 | 0.0 | 0.00 | 0.00 | 0.00 | 59 | 1018.9 |
| 20260502053334 | 5 | 173 | 0.0 | 0.0 | 0.00 | 0.00 | 0.00 | 58 | 1018.9 |
| 20260502052831 | 5 | 173 | 0.0 | 0.0 | 0.00 | 0.00 | 0.00 | 57 | 1019.0 |
| 20260502052329 | 5 | 173 | 0.0 | 0.0 | 0.00 | 0.00 | 0.00 | 56 | 1019.0 |
| 20260502051827 | 5 | 173 | 0.0 | 0.0 | 0.00 | 0.00 | 0.00 | 55 | 1019.0 |
| 20260502051326 | 5 | 173 | 0.0 | 0.0 | 0.00 | 0.00 | 0.00 | 55 | 1019.0 |
| 20260502050821 | 5 | 178 | 0.0 | 0.0 | 0.00 | 0.00 | 0.00 | 55 | 1019.0 |
| 20260502050318 | 5 | 178 | 0.0 | 0.0 | 0.00 | 0.00 | 0.00 | 55 | 1018.9 |
| 20260502045815 | 5 | 180 | 0.0 | 0.0 | 0.00 | 0.00 | 0.00 | 54 | 1019.0 |
| 20260502045311 | 5 | 173 | 0.0 | 0.0 | 0.00 | 0.00 | 0.00 | 55 | 1018.8 |
| 20260502044809 | 5 | 176 | 0.0 | 0.0 | 0.00 | 0.00 | 0.00 | 54 | 1018.8 |
| 20260502044305 | 5 | 174 | 0.0 | 0.0 | 0.00 | 0.00 | 0.00 | 54 | 1018.9 |
| 20260502043802 | 5 | 177 | 0.0 | 0.0 | 0.00 | 0.00 | 0.00 | 55 | 1019.0 |
| 20260502043300 | 5 | 176 | 0.0 | 0.0 | 0.00 | 0.00 | 0.00 | 56 | 1019.0 |
| 20260502042759 | 5 | 173 | 0.0 | 0.0 | 0.00 | 0.00 | 0.00 | 55 | 1019.0 |
| 20260502042256 | 5 | 174 | 0.0 | 0.0 | 0.00 | 0.00 | 0.00 | 55 | 1018.9 |
| 20260502041754 | 5 | 174 | 0.0 | 0.0 | 0.00 | 0.00 | 0.00 | 55 | 1018.9 |
| 20260502041251 | 5 | 173 | 0.0 | 0.0 | 0.00 | 0.00 | 0.00 | 55 | 1019.0 |
| 20260502040748 | 5 | 175 | 0.0 | 0.0 | 0.00 | 0.00 | 0.00 | 55 | 1019.1 |
| 20260502040245 | 5 | 172 | 0.0 | 0.0 | 0.00 | 0.00 | 0.00 | 56 | 1018.9 |
| 20260502035741 | 5 | 175 | 0.0 | 0.0 | 0.00 | 0.00 | 0.00 | 56 | 1019.0 |
| 20260502035238 | 5 | 174 | 0.0 | 0.0 | 0.00 | 0.00 | 0.00 | 55 | 1018.9 |
| 20260502034735 | 5 | 174 | 0.0 | 0.0 | 0.00 | 0.00 | 0.00 | 54 | 1019.1 |
| 20260502034233 | 5 | 173 | 0.0 | 0.0 | 0.00 | 0.00 | 0.00 | 54 | 1018.9 |
| 20260502033731 | 6 | 173 | 0.0 | 0.0 | 0.00 | 0.00 | 0.00 | 53 | 1018.9 |
| 20260502033229 | 6 | 173 | 0.0 | 0.0 | 0.00 | 0.00 | 0.00 | 53 | 1019.2 |
| 20260502032725 | 6 | 173 | 0.0 | 0.0 | 0.00 | 0.00 | 0.00 | 52 | 1019.0 |
| 20260502032221 | 6 | 173 | 0.0 | 0.0 | 0.00 | 0.00 | 0.00 | 52 | 1019.0 |
| 20260502031720 | 6 | 173 | 0.0 | 0.0 | 0.00 | 0.00 | 0.00 | 52 | 1019.2 |
| 20260502031217 | 6 | 173 | 0.0 | 0.0 | 0.00 | 0.00 | 0.00 | 51 | 1019.1 |
| 20260502030716 | 6 | 175 | 0.0 | 0.0 | 0.00 | 0.00 | 0.00 | 51 | 1019.0 |
| 20260502030214 | 6 | 176 | 0.0 | 0.0 | 0.00 | 0.00 | 0.00 | 50 | 1018.9 |
| 20260502025710 | 6 | 179 | 0.0 | 0.0 | 0.00 | 0.00 | 0.00 | 50 | 1019.0 |
| 20260502025208 | 6 | 179 | 0.0 | 0.0 | 0.00 | 0.00 | 0.00 | 49 | 1018.9 |
| 20260502024706 | 6 | 179 | 0.0 | 0.0 | 0.00 | 0.00 | 0.00 | 49 | 1019.0 |
| 20260502024204 | 6 | 179 | 0.0 | 0.0 | 0.00 | 0.00 | 0.00 | 48 | 1019.0 |
| 20260502023701 | 6 | 179 | 0.0 | 0.0 | 0.00 | 0.00 | 0.00 | 47 | 1019.0 |
| 20260502023158 | 6 | 179 | 0.0 | 0.0 | 0.00 | 0.00 | 0.00 | 47 | 1018.9 |
| 20260502022655 | 6 | 179 | 0.0 | 0.0 | 0.00 | 0.00 | 0.00 | 46 | 1019.1 |
| 20260502022152 | 7 | 179 | 0.0 | 0.0 | 0.00 | 0.00 | 0.00 | 46 | 1019.1 |
| 20260502021650 | 7 | 179 | 0.0 | 0.0 | 0.00 | 0.00 | 0.00 | 45 | 1019.0 |
| 20260502021147 | 7 | 179 | 0.0 | 0.0 | 0.00 | 0.00 | 0.00 | 43 | 1019.1 |
| 20260502020644 | 7 | 179 | 0.0 | 0.0 | 0.00 | 0.00 | 0.00 | 43 | 1018.9 |
| 20260502020140 | 8 | 179 | 0.0 | 0.0 | 0.00 | 0.00 | 0.00 | 42 | 1018.7 |
| 20260502015639 | 8 | 179 | 0.0 | 0.0 | 0.00 | 0.00 | 0.00 | 41 | 1018.7 |
| 20260502015134 | 8 | 179 | 0.0 | 0.0 | 0.00 | 0.00 | 0.00 | 40 | 1018.6 |
| 20260502014632 | 8 | 179 | 0.0 | 0.0 | 0.00 | 0.00 | 0.00 | 40 | 1018.6 |
| 20260502014129 | 9 | 185 | 0.0 | 0.0 | 0.00 | 0.00 | 0.00 | 39 | 1018.4 |
| 20260502013625 | 9 | 177 | 0.0 | 0.0 | 0.00 | 0.00 | 0.00 | 37 | 1018.4 |
| 20260502013121 | 10 | 186 | 0.0 | 0.0 | 0.00 | 0.00 | 0.00 | 37 | 1018.4 |
| 20260502012618 | 10 | 182 | 0.0 | 0.0 | 0.00 | 0.00 | 0.00 | 36 | 1018.5 |
| 20260502012116 | 10 | 162 | 0.0 | 0.0 | 0.00 | 0.00 | 0.00 | 35 | 1018.4 |
| 20260502011613 | 10 | 177 | 0.0 | 0.0 | 0.00 | 0.00 | 0.00 | 35 | 1018.4 |
| 20260502011108 | 10 | 175 | 0.0 | 0.0 | 0.00 | 0.00 | 0.00 | 33 | 1018.5 |
| 20260502010606 | 11 | 303 | 3.2 | 3.2 | 0.00 | 0.00 | 0.00 | 33 | 1018.4 |
| 20260502005600 | 11 | 218 | 1.6 | 3.2 | 0.00 | 0.00 | 0.00 | 34 | 1018.5 |
| 20260502005058 | 11 | 189 | 4.8 | 4.8 | 0.00 | 0.00 | 0.00 | 33 | 1018.3 |
| 20260502004553 | 11 | 164 | 0.0 | 0.0 | 0.00 | 0.00 | 0.00 | 33 | 1018.3 |
| 20260502004050 | 11 | 157 | 0.0 | 3.2 | 0.00 | 0.00 | 0.00 | 33 | 1018.4 |
| 20260502003548 | 11 | 308 | 12.9 | 16.1 | 0.00 | 0.00 | 0.00 | 32 | 1018.6 |
| 20260502003045 | 12 | 324 | 3.2 | 4.8 | 0.00 | 0.00 | 0.00 | 32 | 1018.4 |
| 20260502002541 | 12 | 182 | 0.0 | 0.0 | 0.00 | 0.00 | 0.00 | 31 | 1018.4 |
| 20260502002038 | 11 | 27 | 3.2 | 4.8 | 0.00 | 0.00 | 0.00 | 33 | 1018.5 |
| 20260502001536 | 11 | 178 | 1.6 | 3.2 | 0.00 | 0.00 | 0.00 | 33 | 1018.3 |
| 20260502001033 | 11 | 171 | 1.6 | 3.2 | 0.00 | 0.00 | 0.00 | 33 | 1018.1 |
| 20260502000532 | 11 | 129 | 0.0 | 0.0 | 0.00 | 0.00 | 0.00 | 34 | 1018.3 |
| 20260502000028 | 11 | 359 | 3.2 | 4.8 | 0.00 | 0.00 | 0.00 | 33 | 1018.1 |
| 20260501235524 | 11 | 265 | 6.4 | 8.0 | 0.00 | 0.00 | 0.00 | 33 | 1018.5 |
| 20260501235020 | 11 | 14 | 1.6 | 3.2 | 0.00 | 0.00 | 0.00 | 34 | 1018.3 |
| 20260501234516 | 11 | 134 | 3.2 | 3.2 | 0.00 | 0.00 | 0.00 | 33 | 1018.5 |
| 20260501234014 | 11 | 179 | 3.2 | 4.8 | 0.00 | 0.00 | 0.00 | 32 | 1018.4 |
| 20260501233512 | 12 | 181 | 3.2 | 4.8 | 0.00 | 0.00 | 0.00 | 32 | 1018.0 |
| 20260501233008 | 12 | 211 | 3.2 | 4.8 | 0.00 | 0.00 | 0.00 | 31 | 1018.3 |
| 20260501232505 | 12 | 117 | 3.2 | 4.8 | 0.00 | 0.00 | 0.00 | 32 | 1018.2 |
| 20260501232002 | 12 | 176 | 1.6 | 3.2 | 0.00 | 0.00 | 0.00 | 31 | 1018.1 |
| 20260501231500 | 13 | 173 | 3.2 | 4.8 | 0.00 | 0.00 | 0.00 | 31 | 1018.2 |
| 20260501230958 | 13 | 176 | 4.8 | 4.8 | 0.00 | 0.00 | 0.00 | 31 | 1018.3 |
| 20260501230457 | 12 | 187 | 3.2 | 3.2 | 0.00 | 0.00 | 0.00 | 34 | 1018.2 |
| 20260501225954 | 12 | 141 | 3.2 | 4.8 | 0.00 | 0.00 | 0.00 | 31 | 1018.4 |
| 20260501225451 | 12 | 260 | 4.8 | 4.8 | 0.00 | 0.00 | 0.00 | 32 | 1018.2 |
| 20260501224947 | 13 | 226 | 3.2 | 4.8 | 0.00 | 0.00 | 0.00 | 33 | 1018.3 |
| 20260501224445 | 13 | 42 | 9.7 | 14.5 | 0.00 | 0.00 | 0.00 | 31 | 1018.2 |
| 20260501223942 | 13 | 237 | 3.2 | 3.2 | 0.00 | 0.00 | 0.00 | 29 | 1018.4 |
| 20260501223438 | 13 | 236 | 3.2 | 3.2 | 0.00 | 0.00 | 0.00 | 32 | 1018.2 |
| 20260501222933 | 13 | 189 | 3.2 | 3.2 | 0.00 | 0.00 | 0.00 | 34 | 1018.2 |
| 20260501222431 | 12 | 111 | 3.2 | 3.2 | 0.00 | 0.00 | 0.00 | 34 | 1018.4 |
| 20260501221927 | 12 | 4 | 3.2 | 4.8 | 0.00 | 0.00 | 0.00 | 31 | 1018.4 |
| 20260501221424 | 12 | 271 | 0.0 | 3.2 | 0.00 | 0.00 | 0.00 | 33 | 1018.4 |
| 20260501220922 | 12 | 161 | 0.0 | 3.2 | 0.00 | 0.00 | 0.00 | 33 | 1018.3 |
| 20260501220420 | 12 | 130 | 3.2 | 4.8 | 0.00 | 0.00 | 0.00 | 33 | 1018.3 |
| 20260501215915 | 12 | 206 | 3.2 | 4.8 | 0.00 | 0.00 | 0.00 | 32 | 1018.3 |
| 20260501215412 | 13 | 323 | 8.0 | 11.3 | 0.00 | 0.00 | 0.00 | 31 | 1018.5 |
| 20260501214908 | 13 | 292 | 3.2 | 4.8 | 0.00 | 0.00 | 0.00 | 32 | 1018.4 |
| 20260501214403 | 13 | 170 | 6.4 | 11.3 | 0.00 | 0.00 | 0.00 | 32 | 1018.4 |
| 20260501213859 | 13 | 267 | 3.2 | 3.2 | 0.00 | 0.00 | 0.00 | 30 | 1018.4 |
| 20260501213355 | 12 | 204 | 0.0 | 0.0 | 0.00 | 0.00 | 0.00 | 32 | 1018.3 |
| 20260501212851 | 11 | 173 | 3.2 | 4.8 | 0.00 | 0.00 | 0.00 | 31 | 1018.5 |
| 20260501212348 | 12 | 168 | 3.2 | 4.8 | 0.00 | 0.00 | 0.00 | 34 | 1018.5 |
| 20260501211845 | 12 | 194 | 1.6 | 3.2 | 0.00 | 0.00 | 0.00 | 31 | 1018.6 |
| 20260501211343 | 11 | 91 | 4.8 | 4.8 | 0.00 | 0.00 | 0.00 | 35 | 1018.5 |
| 20260501210840 | 11 | 154 | 3.2 | 4.8 | 0.00 | 0.00 | 0.00 | 36 | 1018.6 |
| 20260501210337 | 11 | 64 | 6.4 | 8.0 | 0.00 | 0.00 | 0.00 | 35 | 1018.6 |
| 20260501205833 | 11 | 136 | 3.2 | 3.2 | 0.00 | 0.00 | 0.00 | 35 | 1018.7 |
| 20260501205330 | 11 | 71 | 6.4 | 11.3 | 0.00 | 0.00 | 0.00 | 33 | 1018.7 |
| 20260501204827 | 12 | 170 | 1.6 | 3.2 | 0.00 | 0.00 | 0.00 | 34 | 1018.7 |
| 20260501204324 | 12 | 355 | 3.2 | 4.8 | 0.00 | 0.00 | 0.00 | 33 | 1018.6 |
| 20260501203820 | 11 | 253 | 4.8 | 8.0 | 0.00 | 0.00 | 0.00 | 37 | 1018.7 |
| 20260501203317 | 11 | 81 | 6.4 | 11.3 | 0.00 | 0.00 | 0.00 | 34 | 1018.8 |
| 20260501202814 | 11 | 126 | 0.0 | 0.0 | 0.00 | 0.00 | 0.00 | 35 | 1018.7 |
| 20260501202310 | 12 | 240 | 3.2 | 4.8 | 0.00 | 0.00 | 0.00 | 32 | 1018.8 |
| 20260501201808 | 13 | 50 | 6.4 | 8.0 | 0.00 | 0.00 | 0.00 | 35 | 1018.9 |
| 20260501201304 | 13 | 187 | 6.4 | 11.3 | 0.00 | 0.00 | 0.00 | 33 | 1018.8 |
| 20260501200800 | 12 | 130 | 3.2 | 4.8 | 0.00 | 0.00 | 0.00 | 38 | 1018.9 |
| 20260501200258 | 13 | 312 | 6.4 | 8.0 | 0.00 | 0.00 | 0.00 | 31 | 1018.8 |
| 20260501195755 | 13 | 176 | 3.2 | 3.2 | 0.00 | 0.00 | 0.00 | 32 | 1018.9 |
| 20260501195251 | 12 | 65 | 4.8 | 4.8 | 0.00 | 0.00 | 0.00 | 34 | 1019.0 |
| 20260501194747 | 12 | 322 | 4.8 | 4.8 | 0.00 | 0.00 | 0.00 | 33 | 1018.9 |